Regional Weather Roundup
Issued by NWS

Home | Current Version | Previous Version | Text Only | Print | Product List | Glossary On
Versions: 1 2 3 4 5 6 7 8 9 10 11 12 13 14 15 16 17 18 19 20 21 22 23 24 25 26 27 28 29 30 31 32 33 34 35 36 37 38 39 40 41 42 43 44 45 46 47 48 49 50
000
ASUS45 KBOI 300010
RWRID
WEATHER ROUNDUP FOR IDAHO
NATIONAL WEATHER SERVICE BOISE ID
600 PM MDT SUN MAR 29 2015

NOTE: "FAIR" INDICATES FEW OR NO CLOUDS BELOW 12000 FEET
WITH NO SIGNIFICANT WEATHER AND/OR OBSTRUCTIONS TO VISIBILITY

IDZ012-014-300100-
SOUTHWEST IDAHO


CITY           SKY/WX    TMP DP  RH WIND       PRES   REMARKS
BOISE          SUNNY     66  27  23 NW7       30.18F
CALDWELL       SUNNY     66  28  24 E3        30.19F
MOUNTAIN HOME  SUNNY     67  19  16 N10       30.17F
$$

IDZ016-017-300100-
SOUTHCENTRAL IDAHO


CITY           SKY/WX    TMP DP  RH WIND       PRES   REMARKS
BURLEY         SUNNY     63  15  15 W7        30.18F
JEROME         SUNNY     62  18  18 SW7       30.20F
TWIN FALLS     SUNNY     65  19  17 NW8       30.20F
$$

IDZ019>023-300100-
SOUTHEAST IDAHO


CITY           SKY/WX    TMP DP  RH WIND       PRES   REMARKS
IDAHO FALLS    MOSUNNY   62  13  14 SW15      30.19F
POCATELLO      SUNNY     63  13  14 W15       30.19F
REXBURG        PTSUNNY   59  17  19 SW10      30.19F
$$

IDZ006-010-011-018-031-032-300100-
CENTRAL IDAHO MOUNTAINS


CITY           SKY/WX    TMP DP  RH WIND       PRES   REMARKS
MCCALL         SUNNY     55  26  32 VRB5      30.21F
HAILEY         SUNNY     61  27  27 SE12      30.20F
STANLEY          N/A     54  20  26 SW5       30.24F
SALMON         MOSUNNY   63  23  22 N7        30.13S
CHALLIS        MOSUNNY   64  19  17 W9        30.14S
$$

IDZ002-004-006-007-026-300100-
NORTHERN IDAHO


CITY           SKY/WX    TMP DP  RH WIND       PRES   REMARKS
LEWISTON       MOSUNNY   67  38  34 CALM      30.14F
LOWELL           N/A     57  44  62 N3        30.14F
COEUR D`ALENE  CLOUDY    57  39  51 SW13      30.15F
MULLAN PASS    CLOUDY    40  32  73 VRB6      30.18F
$$



USA.gov is the U.S. government's official web portal to all federal, state and local government web resources and services.